| time (UTC) | temp F | wind direction | speed MPH | gust MPH | rain 1hr in | rain 24hr in | rain mn in | humidity % | barometer mb |
| 20260505223023 | 62 | 73 | 0.0 | 2.0 | 0.00 | 0.00 | 0.00 | 64 | 1010.3 |
| 20260505222019 | 62 | 66 | 1.0 | 4.0 | 0.00 | 0.00 | 0.00 | 62 | 1010.3 |
| 20260505221034 | 62 | 33 | 3.0 | 8.0 | 0.00 | 0.00 | 0.00 | 62 | 1010.2 |
| 20260505220029 | 63 | 44 | 3.0 | 7.0 | 0.00 | 0.00 | 0.00 | 62 | 1010.2 |
| 20260505215025 | 63 | 52 | 2.0 | 9.0 | 0.00 | 0.00 | 0.00 | 62 | 1010.2 |
| 20260505214020 | 63 | 53 | 4.0 | 10.0 | 0.00 | 0.00 | 0.00 | 62 | 1010.1 |
| 20260505213015 | 63 | 43 | 6.0 | 11.0 | 0.00 | 0.00 | 0.00 | 62 | 1010.0 |
| 20260505212031 | 63 | 46 | 6.0 | 15.0 | 0.00 | 0.00 | 0.00 | 62 | 1010.1 |
| 20260505211027 | 63 | 56 | 7.0 | 14.0 | 0.00 | 0.00 | 0.00 | 62 | 1010.2 |
| 20260505210042 | 63 | 56 | 5.0 | 13.0 | 0.00 | 0.00 | 0.00 | 63 | 1010.2 |
| 20260505205017 | 63 | 56 | 5.0 | 13.0 | 0.00 | 0.00 | 0.00 | 67 | 1009.9 |
| 20260505204033 | 64 | 47 | 11.0 | 19.0 | 0.00 | 0.00 | 0.00 | 71 | 1009.8 |
| 20260505203028 | 64 | 53 | 10.0 | 22.0 | 0.00 | 0.00 | 0.00 | 74 | 1009.7 |
| 20260505202023 | 64 | 53 | 6.0 | 15.0 | 0.00 | 0.00 | 0.00 | 75 | 1009.6 |
| 20260505201019 | 64 | 58 | 8.0 | 15.0 | 0.00 | 0.00 | 0.00 | 76 | 1009.5 |
| 20260505200034 | 64 | 51 | 6.0 | 17.0 | 0.00 | 0.00 | 0.00 | 77 | 1009.3 |
| 20260505195030 | 65 | 49 | 7.0 | 17.0 | 0.00 | 0.00 | 0.00 | 77 | 1008.9 |
| 20260505194026 | 65 | 67 | 7.0 | 13.0 | 0.00 | 0.00 | 0.00 | 79 | 1008.7 |
| 20260505193041 | 65 | 60 | 5.0 | 17.0 | 0.00 | 0.00 | 0.00 | 80 | 1008.7 |
| 20260505192056 | 65 | 58 | 6.0 | 17.0 | 0.00 | 0.00 | 0.00 | 82 | 1008.5 |
| 20260505191032 | 65 | 58 | 8.0 | 19.0 | 0.00 | 0.00 | 0.00 | 83 | 1008.3 |
| 20260505190027 | 66 | 58 | 8.0 | 18.0 | 0.00 | 0.00 | 0.00 | 82 | 1008.0 |
| 20260505185022 | 66 | 65 | 7.0 | 17.0 | 0.00 | 0.00 | 0.00 | 81 | 1007.9 |
| 20260505184018 | 66 | 55 | 7.0 | 18.0 | 0.00 | 0.00 | 0.00 | 80 | 1007.7 |
| 20260505183033 | 67 | 52 | 5.0 | 13.0 | 0.00 | 0.00 | 0.00 | 78 | 1007.6 |
| 20260505182028 | 68 | 55 | 7.0 | 15.0 | 0.00 | 0.00 | 0.00 | 77 | 1007.6 |
| 20260505181044 | 69 | 70 | 6.0 | 14.0 | 0.00 | 0.00 | 0.00 | 76 | 1007.4 |
| 20260505180020 | 70 | 74 | 4.0 | 11.0 | 0.00 | 0.00 | 0.00 | 71 | 1007.3 |
| 20260505175035 | 71 | 88 | 5.0 | 11.0 | 0.00 | 0.00 | 0.00 | 68 | 1007.0 |
| 20260505174031 | 71 | 82 | 5.0 | 13.0 | 0.00 | 0.00 | 0.00 | 65 | 1006.9 |
| 20260505173025 | 72 | 99 | 8.0 | 14.0 | 0.00 | 0.00 | 0.00 | 60 | 1006.7 |
| 20260505172021 | 73 | 95 | 6.0 | 13.0 | 0.00 | 0.00 | 0.00 | 57 | 1006.8 |
| 20260505171016 | 74 | 93 | 3.0 | 9.0 | 0.00 | 0.00 | 0.00 | 52 | 1006.8 |
| 20260505170032 | 75 | 84 | 2.0 | 6.0 | 0.00 | 0.00 | 0.00 | 48 | 1006.8 |
| 20260505165028 | 75 | 4 | 10.0 | 19.0 | 0.00 | 0.00 | 0.00 | 47 | 1006.8 |
| 20260505164023 | 78 | 321 | 4.0 | 10.0 | 0.00 | 0.00 | 0.00 | 24 | 1006.9 |
| 20260505163018 | 78 | 259 | 5.0 | 10.0 | 0.00 | 0.00 | 0.00 | 24 | 1007.0 |
| 20260505162034 | 78 | 265 | 6.0 | 11.0 | 0.00 | 0.00 | 0.00 | 24 | 1007.0 |
| 20260505161030 | 78 | 309 | 6.0 | 14.0 | 0.00 | 0.00 | 0.00 | 23 | 1007.0 |
| 20260505153051 | 78 | 293 | 7.0 | 13.0 | 0.00 | 0.00 | 0.00 | 24 | 1006.9 |
| 20260505152026 | 78 | 278 | 8.0 | 15.0 | 0.00 | 0.00 | 0.00 | 24 | 1006.9 |
| 20260505151021 | 78 | 282 | 5.0 | 14.0 | 0.00 | 0.00 | 0.00 | 24 | 1007.1 |
| 20260505125017 | 76 | 285 | 5.0 | 16.0 | 0.00 | 0.00 | 0.00 | 27 | 1008.2 |
| 20260505124032 | 76 | 244 | 7.0 | 14.0 | 0.00 | 0.00 | 0.00 | 28 | 1008.3 |
| 20260505123048 | 75 | 310 | 6.0 | 15.0 | 0.00 | 0.00 | 0.00 | 28 | 1008.2 |
| 20260505122023 | 75 | 295 | 4.0 | 9.0 | 0.00 | 0.00 | 0.00 | 28 | 1008.2 |
| 20260505121019 | 76 | 259 | 8.0 | 16.0 | 0.00 | 0.00 | 0.00 | 29 | 1008.2 |
| 20260505120035 | 78 | 240 | 5.0 | 11.0 | 0.00 | 0.00 | 0.00 | 27 | 1008.3 |
| 20260505115050 | 77 | 216 | 6.0 | 18.0 | 0.00 | 0.00 | 0.00 | 27 | 1008.2 |
| 20260505114045 | 76 | 264 | 4.0 | 9.0 | 0.00 | 0.00 | 0.00 | 27 | 1008.5 |
| 20260505113020 | 76 | 278 | 4.0 | 11.0 | 0.00 | 0.00 | 0.00 | 28 | 1008.6 |
| 20260505112015 | 76 | 271 | 3.0 | 8.0 | 0.00 | 0.00 | 0.00 | 28 | 1008.8 |
| 20260505111031 | 76 | 280 | 2.0 | 6.0 | 0.00 | 0.00 | 0.00 | 29 | 1008.9 |
| 20260505102027 | 75 | 244 | 1.0 | 6.0 | 0.00 | 0.00 | 0.00 | 33 | 1009.3 |
| 20260505101021 | 75 | 246 | 2.0 | 4.0 | 0.00 | 0.00 | 0.00 | 33 | 1009.4 |
| 20260505100017 | 73 | 327 | 2.0 | 6.0 | 0.00 | 0.00 | 0.00 | 33 | 1009.5 |
| 20260505095033 | 72 | 279 | 5.0 | 8.0 | 0.00 | 0.00 | 0.00 | 34 | 1009.5 |
| 20260505094048 | 73 | 296 | 5.0 | 11.0 | 0.00 | 0.00 | 0.00 | 32 | 1009.5 |
| 20260505093044 | 72 | 281 | 3.0 | 7.0 | 0.00 | 0.00 | 0.00 | 36 | 1009.4 |
| 20260505092019 | 72 | 294 | 4.0 | 9.0 | 0.00 | 0.00 | 0.00 | 37 | 1009.7 |
| 20260505091034 | 72 | 284 | 1.0 | 3.0 | 0.00 | 0.00 | 0.00 | 45 | 1009.6 |
| 20260505090030 | 71 | 269 | 3.0 | 6.0 | 0.00 | 0.00 | 0.00 | 49 | 1009.7 |
| 20260505085025 | 70 | 224 | 3.0 | 6.0 | 0.00 | 0.00 | 0.00 | 51 | 1009.7 |
| 20260505084020 | 69 | 321 | 2.0 | 6.0 | 0.00 | 0.00 | 0.00 | 50 | 1009.8 |
| 20260505083036 | 68 | 259 | 2.0 | 6.0 | 0.00 | 0.00 | 0.00 | 55 | 1009.8 |
| 20260505082032 | 67 | 267 | 2.0 | 4.0 | 0.00 | 0.00 | 0.00 | 59 | 1009.9 |
| 20260505081046 | 66 | 253 | 4.0 | 7.0 | 0.00 | 0.00 | 0.00 | 61 | 1009.9 |
| 20260505080022 | 66 | 270 | 3.0 | 6.0 | 0.00 | 0.00 | 0.00 | 62 | 1009.9 |
| 20260505075018 | 65 | 285 | 3.0 | 8.0 | 0.00 | 0.00 | 0.00 | 60 | 1010.1 |
| 20260505074033 | 65 | 282 | 4.0 | 8.0 | 0.00 | 0.00 | 0.00 | 59 | 1010.1 |
| 20260505073029 | 64 | 286 | 4.0 | 9.0 | 0.00 | 0.00 | 0.00 | 61 | 1010.1 |
| 20260505072024 | 64 | 318 | 5.0 | 9.0 | 0.00 | 0.00 | 0.00 | 64 | 1010.2 |
| 20260505071020 | 63 | 308 | 2.0 | 6.0 | 0.00 | 0.00 | 0.00 | 70 | 1010.2 |
| 20260505070016 | 62 | 317 | 3.0 | 7.0 | 0.00 | 0.00 | 0.00 | 73 | 1010.2 |
| 20260505065031 | 62 | 295 | 2.0 | 4.0 | 0.00 | 0.00 | 0.00 | 75 | 1010.3 |
| 20260505064026 | 61 | 279 | 3.0 | 7.0 | 0.00 | 0.00 | 0.00 | 76 | 1010.2 |
| 20260505063021 | 61 | 282 | 4.0 | 6.0 | 0.00 | 0.00 | 0.00 | 80 | 1010.1 |
| 20260505062037 | 60 | 291 | 3.0 | 6.0 | 0.00 | 0.00 | 0.00 | 81 | 1010.2 |
| 20260505061032 | 60 | 304 | 3.0 | 7.0 | 0.00 | 0.00 | 0.00 | 83 | 1010.0 |
| 20260505060028 | 60 | 279 | 3.0 | 9.0 | 0.00 | 0.00 | 0.00 | 84 | 1010.1 |
| 20260505055024 | 59 | 286 | 3.0 | 6.0 | 0.00 | 0.00 | 0.00 | 86 | 1010.0 |
| 20260505054018 | 59 | 297 | 2.0 | 4.0 | 0.00 | 0.00 | 0.00 | 87 | 1010.0 |
| 20260505053034 | 59 | 287 | 3.0 | 8.0 | 0.00 | 0.00 | 0.00 | 89 | 1009.9 |
| 20260505052029 | 59 | 280 | 2.0 | 6.0 | 0.00 | 0.00 | 0.00 | 90 | 1009.8 |
| 20260505051024 | 59 | 295 | 1.0 | 3.0 | 0.00 | 0.00 | 0.00 | 91 | 1009.8 |
| 20260505041016 | 60 | 314 | 0.0 | 1.0 | 0.00 | 0.00 | 0.00 | 91 | 1009.9 |
| 20260505040031 | 60 | 334 | 1.0 | 2.0 | 0.00 | 0.00 | 0.00 | 91 | 1009.9 |
| 20260505035027 | 60 | 313 | 0.0 | 1.0 | 0.00 | 0.00 | 0.00 | 91 | 1010.0 |
| 20260505034022 | 60 | 331 | 0.0 | 1.0 | 0.00 | 0.00 | 0.00 | 91 | 1010.1 |
| 20260505033017 | 59 | 0.0 | 0.0 | 0.00 | 0.00 | 0.00 | 91 | 1010.1 | |
| 20260505032032 | 59 | 0.0 | 0.0 | 0.00 | 0.00 | 0.00 | 90 | 1010.2 | |
| 20260505031028 | 60 | 0.0 | 0.0 | 0.00 | 0.00 | 0.00 | 90 | 1010.2 | |
| 20260505030043 | 60 | 0.0 | 0.0 | 0.00 | 0.00 | 0.00 | 90 | 1010.2 | |
| 20260505025038 | 60 | 0.0 | 0.0 | 0.00 | 0.00 | 0.00 | 90 | 1010.2 | |
| 20260505024054 | 60 | 318 | 1.0 | 1.0 | 0.00 | 0.00 | 0.00 | 91 | 1010.2 |
| 20260505023029 | 60 | 301 | 1.0 | 2.0 | 0.00 | 0.00 | 0.00 | 91 | 1010.2 |
| 20260505022025 | 60 | 306 | 1.0 | 2.0 | 0.00 | 0.00 | 0.00 | 92 | 1010.3 |
| 20260505021020 | 60 | 330 | 1.0 | 3.0 | 0.00 | 0.00 | 0.00 | 92 | 1010.1 |
| 20260505020016 | 60 | 350 | 1.0 | 2.0 | 0.00 | 0.00 | 0.00 | 92 | 1010.1 |
| 20260505015031 | 60 | 338 | 1.0 | 3.0 | 0.00 | 0.00 | 0.00 | 92 | 1010.2 |
| 20260505014046 | 60 | 341 | 2.0 | 3.0 | 0.00 | 0.00 | 0.00 | 92 | 1010.1 |
| 20260505013042 | 60 | 6 | 1.0 | 2.0 | 0.00 | 0.00 | 0.00 | 92 | 1010.2 |
| 20260505012018 | 60 | 346 | 1.0 | 3.0 | 0.00 | 0.00 | 0.00 | 91 | 1010.3 |
| 20260505011033 | 60 | 345 | 1.0 | 2.0 | 0.00 | 0.00 | 0.00 | 91 | 1010.5 |
| 20260505010109 | 60 | 0.0 | 0.0 | 0.00 | 0.00 | 0.00 | 91 | 1010.7 | |
| 20260505005023 | 60 | 344 | 0.0 | 1.0 | 0.00 | 0.00 | 0.00 | 91 | 1010.8 |
| 20260505004019 | 60 | 349 | 0.0 | 1.0 | 0.00 | 0.00 | 0.00 | 91 | 1010.9 |
| 20260505003034 | 60 | 322 | 1.0 | 1.0 | 0.00 | 0.00 | 0.00 | 91 | 1010.9 |
| 20260505002029 | 60 | 356 | 0.0 | 1.0 | 0.00 | 0.00 | 0.00 | 91 | 1011.0 |
| 20260505001025 | 60 | 6 | 0.0 | 1.0 | 0.00 | 0.00 | 0.00 | 90 | 1010.9 |
| 20260505000020 | 60 | 0.0 | 0.0 | 0.00 | 0.00 | 0.00 | 90 | 1011.0 | |
| 20260504235015 | 61 | 0.0 | 0.0 | 0.00 | 0.00 | 0.00 | 90 | 1010.9 | |
| 20260504234051 | 61 | 0.0 | 0.0 | 0.00 | 0.00 | 0.00 | 89 | 1010.9 | |
| 20260504233026 | 61 | 0.0 | 0.0 | 0.00 | 0.00 | 0.00 | 89 | 1010.9 | |
| 20260504232021 | 61 | 0.0 | 0.0 | 0.00 | 0.00 | 0.00 | 89 | 1011.0 | |
| 20260504231017 | 61 | 0.0 | 0.0 | 0.00 | 0.00 | 0.00 | 89 | 1010.9 | |
| 20260504230032 | 61 | 0.0 | 0.0 | 0.00 | 0.00 | 0.00 | 89 | 1010.9 | |
| 20260504225027 | 62 | 0.0 | 0.0 | 0.00 | 0.00 | 0.00 | 89 | 1010.8 | |
| 20260504224023 | 62 | 0.0 | 0.0 | 0.00 | 0.00 | 0.00 | 89 | 1010.8 |